Simultaneous Nadir Overpasses (SNOs) Predictions

Prediction of SNOs between GOES-17 and METOP-C Satellite Orbit:

Table of predicted SNOs for the next 14.0 days since TLE Epoch: 8/17/2024
Index Date Time (GOES-17) GOES-17 Lat,Lon METOP-C Lat,Lon Distance(km) Time Diff (sec)
1 08/17/2024 16:41:07 0.01,-104.72 0.71,-107.82 353.49 80
2 08/18/2024 16:23:07 0.01,-104.72 -0.41,-102.82 215.73 80
3 08/20/2024 04:42:07 -0.00,-104.68 -0.60,-107.41 311.27 80
4 08/21/2024 04:18:47 -0.00,-104.68 0.53,-102.42 258.08 80
5 08/22/2024 16:37:39 0.00,-104.71 0.50,-106.97 257.31 80
6 08/23/2024 16:19:38 0.00,-104.71 -0.58,-101.97 312.34 80
7 08/25/2024 04:38:37 -0.01,-104.68 -0.40,-106.56 214.11 80
8 08/26/2024 04:15:17 -0.01,-104.67 0.70,-101.56 355.37 80
9 08/27/2024 16:34:08 0.01,-104.71 0.30,-106.12 160.11 80
10 08/28/2024 16:16:08 0.01,-104.70 -0.81,-101.11 409.54 80
11 08/30/2024 04:35:05 -0.02,-104.67 -0.26,-105.69 116.65 80
